Terminal Aerodrome Forecast
Issued by NWS Bismarck, ND

Home | Current Version | Previous Version | Graphics & Text | Print | Product List | Glossary On
Versions: 1 2 3 4 5 6 7 8 9 10 11 12 13 14
000
FTUS43 KBIS 231700
TAFBIS
TAF
KBIS 231734Z 2318/2418 24010KT P6SM SCT150
     FM241600 27013KT P6SM SCT100=

USA.gov is the U.S. government's official web portal to all federal, state and local government web resources and services.